Location: River House Observatory
(37.8577°N, 76.3548°W)
Time: 07:29:30
(UTC-04:00)

Daily predictions for brighter satellites

Satellite Brightness Start Highest point End
(mag) Time Altitude Azimuth Time Altitude Azimuth Time Altitude Azimuth
Cosmos 1844 4.4 20:02:45 10° N 20:08:03 38° ENE 20:13:22 10° SE
FengYun 1-2 T 4.5 20:04:47 10° S 20:10:23 80° WSW 20:16:03 10° NNW
Envisat 3.2 20:05:38 10° SSE 20:10:33 52° ENE 20:15:29 10° N
Cosmos 2219 Rocket 2.5 20:05:20 10° S 20:10:43 46° ESE 20:16:06 10° NE
Cosmos 2251 Rocket 3.9 20:05:45 10° N 20:10:57 47° ENE 20:16:04 10° SE
Cosmos 2237 Rocket 3.3 20:08:39 10° SSE 20:12:52 22° E 20:17:07 10° NE
Cosmos 1892 3.7 20:11:46 10° NNE 20:15:13 29° ENE 20:18:38 10° SE
BREEZE-M DEB (TANK) 3.4 20:08:38 10° WNW 20:15:15 86° NNE 20:18:41 10° ESE
YAOGAN 6 3.7 20:15:19 10° SE 20:18:23 27° ENE 20:21:30 10° NNE
EO 1 Del DPAF 4.5 20:17:36 10° N 20:21:17 47° WNW 20:24:56 10° SSW
Nadezhda 3 Rocket 4.3 20:16:13 10° N 20:22:21 51° E 20:28:29 10° SSE
Cosmos 2278 Rocket 3.6 20:19:12 10° N 20:23:37 23° NE 20:27:58 10° ESE
Cosmos 1633 Rocket 3.5 20:23:23 10° N 20:27:30 40° E 20:31:35 10° SSE
Sakura Rocket 4.5 20:26:54 10° SW 20:30:49 23° S 20:33:41 12° SE
Cosmos 2221 4.4 20:29:06 10° SW 20:32:59 35° WNW 20:36:55 10° NNW
NOSS 2-1 (C) 4.5 20:32:46 10° SW 20:36:13 43° NW 20:39:57 10° NNE
Cosmos 1515 Rocket 4.4 20:33:03 10° SSE 20:36:55 29° E 20:40:46 10° NNE
Cosmos 1340 3.0 20:34:25 10° SSW 20:38:10 68° W 20:41:58 10° N
BREEZE-M DEB (TANK) 4.0 20:34:23 10° NW 20:38:37 28° NNE 20:40:37 12° ENE
Cosmos 2228 Rocket 3.8 20:37:42 10° SSE 20:41:37 33° E 20:45:33 10° NNE
Thor Agena Rocket 3.6 20:37:36 10° NNE 20:42:52 83° ESE 20:48:09 10° SSW
SL-24 R/B - RUBIN 2 3.6 20:39:24 10° NNW 20:43:45 81° WSW 20:48:00 11° SSE
ATLAS 2AS CENTAUR R/B 3.2 20:38:38 10° NNW 20:46:24 56° NE 20:52:15 16° SE
ASTRO E2 4.4 20:47:49 10° SSW 20:50:25 17° SSE 20:51:07 16° SSE
OAO 2 Rocket 3.8 20:46:15 10° W 20:51:17 49° SSW 20:54:42 19° SE
NOSS 3 (A) 4.3 20:50:23 10° SSW 20:53:06 64° ESE 20:56:00 10° NE
Spot 2 Rocket 3.7 20:49:02 13° SE 20:53:26 51° ENE 20:58:21 10° N
Cosmos 1825 3.4 20:50:48 10° NNE 20:53:55 24° ENE 20:54:53 21° E
Cosmos 1328 Rocket 3.5 20:51:15 10° S 20:55:37 74° E 21:00:03 10° N
Cosmos 2154 Rocket 4.3 20:50:54 10° SSW 20:57:08 71° W 21:03:22 10° N
ATLAS CENTAUR R/B 1.3 20:54:30 10° SW 20:58:07 70° WNW 21:01:54 10° NNE
SL-8 R/B 3.6 20:53:51 10° SW 20:58:38 87° SSE 21:03:27 10° ENE
SL-16 R/B 3.2 21:01:33 21° ESE 21:03:00 23° E 21:07:23 10° NE
Resurs 01 Rocket 1.6 21:02:01 11° SSE 21:06:14 89° WSW 21:10:42 10° NNW
ARGOS 4.1 21:06:46 23° ESE 21:08:51 30° ENE 21:13:25 10° N
Cosmos 1470 Rocket 3.5 21:06:17 10° N 21:10:40 65° E 21:13:19 23° SSE
Haruka 4.4 21:07:45 10° W 21:13:46 24° SW 21:15:51 17° S
Meteor 2-3 Rocket 3.8 21:08:59 10° N 21:14:36 82° W 21:20:11 10° S
Cosmos 1939 Rocket 3.5 21:13:06 10° S 21:16:50 52° W 21:20:39 10° NNW
Cosmos 2341 Rocket 4.3 21:14:09 10° SSW 21:20:29 70° W 21:26:49 10° N
Cosmos 1869 3.4 21:19:48 36° SSE 21:21:03 52° E 21:24:58 10° NNE
NOSS 0 Rocket 4.1 21:16:14 10° SSW 21:22:23 75° WNW 21:28:37 10° NNE
Meteor 2-10 Rocket 4.0 21:20:50 24° SSE 21:23:58 47° E 21:29:31 10° NNE
Cosmos 2218 Rocket 4.0 21:18:57 10° S 21:25:14 70° E 21:31:36 10° NNE
Cosmos 1980 3.9 21:23:26 10° SSW 21:29:06 72° WNW 21:34:48 10° NNE
USA 267 3.7 21:24:10 10° ENE 21:30:01 34° SE 21:35:48 10° S
ERS-1 Rocket 3.8 21:30:08 30° E 21:30:51 31° ENE 21:35:15 10° N
Cosmos 407 Rocket 4.2 21:28:50 10° N 21:33:31 35° ENE 21:34:17 33° E
Cosmos 2366 rocket 3.9 21:31:03 13° S 21:36:44 77° E 21:43:01 10° N
H-2A R/B 2.5 21:36:33 37° E 21:37:17 40° ENE 21:41:55 10° N
Cosmos 1408 2.6 21:33:46 10° N 21:37:26 75° W 21:38:11 53° SSW
Cosmos 1933 Rocket 3.7 21:34:53 10° NNW 21:39:16 71° W 21:41:04 34° S
Cosmos 2333 Rocket 3.8 21:34:56 10° SW 21:40:07 36° WNW 21:45:19 10° N
Cosmos 1151 Rocket 3.8 21:36:46 10° SSW 21:40:53 49° W 21:45:03 10° N
Cosmos 1371 Rocket 4.0 21:35:45 10° SSW 21:41:03 90° W 21:46:26 10° NNE
SL-8 Rocket 4.3 21:39:37 10° SSW 21:45:53 67° W 21:52:09 10° N
MetOp-A 4.0 21:51:20 52° SE 21:52:40 76° ENE 21:58:01 10° N
Cosmos 1339 Rocket 4.3 21:49:26 10° N 21:55:34 84° E 21:57:44 43° SSE
Cosmos 2237 Rocket 3.2 21:51:12 10° SW 21:56:34 45° WNW 22:01:58 10° N
Cosmos 1869 Rocket 4.0 21:57:23 10° N 22:00:54 48° NE 22:00:54 48° NE
Cosmos 2056 Rocket 3.7 21:57:10 10° SSW 22:02:33 74° WNW 22:07:58 10° NNE
Helios 1A 4.0 22:08:42 37° NNE 22:08:42 37° NNE 22:11:36 10° N
Cosmos 2278 Rocket 2.8 22:02:30 10° NNW 22:07:58 50° WSW 22:09:51 36° SSW
Terra 3.7 22:09:24 19° NE 22:09:24 19° NE 22:11:40 10° NNE
Cosmos 2098 Rocket 3.9 22:07:13 27° SW 22:09:27 47° W 22:13:18 10° N
Cosmos 1862 4.3 22:06:58 10° N 22:09:45 42° N 22:09:45 42° N
Cosmos 405 Rocket 4.2 22:15:05 31° N 22:15:05 31° N 22:17:13 10° N
Cosmos 1190 Rocket 4.0 22:19:41 10° NNW 22:24:56 74° WSW 22:24:56 74° WSW
SPOT 5 3.5 22:28:34 45° N 22:28:34 45° N 22:31:45 10° N
ATLAS 2A CENTAUR R/B 4.0 22:12:27 10° WSW 22:27:26 39° S 22:27:46 39° S
Cosmos 1140 Rocket 4.0 22:22:57 10° N 22:27:07 49° NNE 22:27:07 49° NNE
Lacrosse 5 4.1 22:26:28 10° N 22:29:22 15° NNE 22:30:32 14° NE
ATLAS 2AS CENTAUR R/B 4.2 22:30:27 10° NW 22:36:55 30° WSW 22:39:43 23° SW
Cosmos 1954 Rocket 4.5 22:32:39 10° NNW 22:36:48 54° N 22:36:48 54° N
GEOS 3 Rocket 4.1 22:36:16 10° NNE 22:41:32 59° NW 22:43:43 34° WSW
SL-16 R/B 3.2 22:43:11 20° SW 22:46:46 44° WNW 22:52:10 10° N
ARGOS 4.4 22:48:16 31° WSW 22:48:58 32° W 22:53:45 10° NW
Cosmos 2344 3.5 22:43:13 10° SW 22:50:52 82° WNW 22:59:06 10° NNE
Cosmos 1943 Rocket 4.0 22:51:33 10° N 22:54:37 20° NE 22:54:37 20° NE
Cosmos 1821 Rocket 4.1 22:57:37 72° WNW 22:57:37 72° WNW 23:03:53 10° N
NOSS 3-4 (A) 4.1 23:00:51 10° NW 23:07:53 59° WSW 23:07:54 59° WSW
NOSS 3-4 (C) 4.1 23:00:57 10° NW 23:07:58 60° WSW 23:07:58 60° WSW
USA 267 3.6 23:06:45 10° NE 23:13:11 63° NW 23:19:37 10° WSW
H-2A R/B 4.0 23:17:10 21° W 23:17:10 21° W 23:20:34 10° NW
Cosmos 2123 Rocket 4.4 23:10:52 10° N 23:15:50 58° N 23:15:50 58° N
Cosmos 2369 Rocket 3.5 23:21:49 10° NNW 23:25:18 35° N 23:25:18 35° N
CZ-2C R/B 4.4 23:37:11 10° NNE 23:39:33 27° NNE 23:39:33 27° NNE
CZ-4C R/B 3.7 23:44:41 33° N 23:44:41 33° N 23:48:33 10° NNE
USA 234 3.9 23:45:38 47° NNE 23:45:38 47° NNE 23:51:21 10° NW
Terra 4.1 23:48:17 21° NW 23:48:17 21° NW 23:50:03 10° NNW
